| time (UTC) | temp F | wind direction | speed knots | gust knots | rain 1hr in | rain 24hr in | rain mn in | humidity % | barometer mb |
| 20260510050031 | 74 | 149 | 5.2 | 7.8 | 0.00 | 0.00 | 0.00 | 79 | 1010.3 |
| 20260510045534 | 74 | 134 | 4.3 | 8.7 | 0.00 | 0.00 | 0.00 | 79 | 1010.3 |
| 20260510044602 | 74 | 151 | 5.2 | 7.8 | 0.00 | 0.00 | 0.00 | 79 | 1010.3 |
| 20260510044048 | 74 | 142 | 4.3 | 7.8 | 0.00 | 0.00 | 0.00 | 79 | 1010.3 |
| 20260510043027 | 74 | 135 | 5.2 | 10.4 | 0.00 | 0.00 | 0.00 | 79 | 1010.5 |
| 20260510042639 | 74 | 113 | 6.1 | 11.3 | 0.00 | 0.00 | 0.00 | 79 | 1010.5 |
| 20260510042119 | 74 | 134 | 5.2 | 11.3 | 0.00 | 0.00 | 0.00 | 80 | 1010.4 |
| 20260510041546 | 74 | 141 | 7.0 | 9.6 | 0.00 | 0.00 | 0.00 | 82 | 1010.4 |
| 20260510040631 | 74 | 126 | 2.6 | 6.1 | 0.00 | 0.00 | 0.00 | 82 | 1010.2 |
| 20260510040028 | 74 | 138 | 3.5 | 4.3 | 0.00 | 0.00 | 0.00 | 82 | 1010.0 |
| 20260510035539 | 74 | 138 | 2.6 | 6.1 | 0.00 | 0.00 | 0.00 | 82 | 1009.9 |
| 20260510034559 | 74 | 140 | 5.2 | 7.0 | 0.00 | 0.00 | 0.00 | 82 | 1010.0 |
| 20260510034052 | 75 | 128 | 3.5 | 6.1 | 0.00 | 0.00 | 0.00 | 82 | 1009.9 |
| 20260510033048 | 75 | 136 | 4.3 | 7.8 | 0.00 | 0.00 | 0.00 | 82 | 1009.8 |
| 20260510032552 | 75 | 148 | 5.2 | 7.8 | 0.00 | 0.00 | 0.00 | 81 | 1009.8 |
| 20260510031558 | 75 | 144 | 5.2 | 7.0 | 0.00 | 0.00 | 0.00 | 81 | 1009.7 |
| 20260510031101 | 76 | 141 | 3.5 | 6.1 | 0.00 | 0.00 | 0.00 | 80 | 1009.5 |
| 20260510030612 | 76 | 134 | 2.6 | 6.1 | 0.00 | 0.00 | 0.00 | 79 | 1009.4 |
| 20260510030029 | 76 | 132 | 2.6 | 7.8 | 0.00 | 0.00 | 0.00 | 79 | 1009.2 |
| 20260510025539 | 76 | 134 | 3.5 | 7.8 | 0.00 | 0.00 | 0.00 | 79 | 1009.2 |
| 20260510024604 | 77 | 207 | 2.6 | 3.5 | 0.00 | 0.00 | 0.00 | 77 | 1009.1 |
| 20260510024051 | 77 | 207 | 2.6 | 3.5 | 0.00 | 0.00 | 0.00 | 76 | 1009.0 |
| 20260510023550 | 78 | 209 | 1.7 | 3.5 | 0.00 | 0.00 | 0.00 | 75 | 1009.1 |
| 20260510023020 | 78 | 209 | 2.6 | 3.5 | 0.00 | 0.00 | 0.00 | 74 | 1008.9 |
| 20260510022631 | 78 | 210 | 2.6 | 3.5 | 0.00 | 0.00 | 0.00 | 74 | 1008.8 |
| 20260510021607 | 78 | 211 | 1.7 | 2.6 | 0.00 | 0.00 | 0.00 | 74 | 1008.7 |
| 20260510021110 | 79 | 211 | 1.7 | 2.6 | 0.00 | 0.00 | 0.00 | 72 | 1008.7 |
| 20260510020620 | 79 | 211 | 1.7 | 2.6 | 0.00 | 0.00 | 0.00 | 72 | 1008.8 |
| 20260510020039 | 79 | 211 | 1.7 | 2.6 | 0.00 | 0.00 | 0.00 | 71 | 1008.6 |
| 20260510015549 | 79 | 211 | 1.7 | 3.5 | 0.00 | 0.00 | 0.00 | 71 | 1008.6 |
| 20260510014615 | 80 | 247 | 1.7 | 3.5 | 0.00 | 0.00 | 0.00 | 70 | 1008.5 |
| 20260510014027 | 80 | 248 | 0.9 | 3.5 | 0.00 | 0.00 | 0.00 | 70 | 1008.4 |
| 20260510013631 | 80 | 248 | 0.0 | 0.0 | 0.00 | 0.00 | 0.00 | 69 | 1008.3 |
| 20260510013040 | 81 | 248 | 0.0 | 0.0 | 0.00 | 0.00 | 0.00 | 68 | 1008.2 |
| 20260510012544 | 81 | 248 | 0.0 | 0.0 | 0.00 | 0.00 | 0.00 | 67 | 1008.3 |
| 20260510011605 | 81 | 248 | 0.0 | 2.6 | 0.00 | 0.00 | 0.00 | 67 | 1008.0 |
| 20260510011056 | 81 | 248 | 1.7 | 2.6 | 0.00 | 0.00 | 0.00 | 68 | 1008.0 |
| 20260510010057 | 82 | 190 | 2.6 | 3.5 | 0.00 | 0.00 | 0.00 | 67 | 1007.9 |
| 20260510005600 | 82 | 190 | 1.7 | 3.5 | 0.00 | 0.00 | 0.00 | 68 | 1007.8 |
| 20260510005110 | 82 | 190 | 2.6 | 4.3 | 0.00 | 0.00 | 0.00 | 67 | 1007.9 |
| 20260510004537 | 83 | 190 | 2.6 | 4.3 | 0.00 | 0.00 | 0.00 | 66 | 1007.8 |
| 20260510004044 | 83 | 185 | 1.7 | 2.6 | 0.00 | 0.00 | 0.00 | 65 | 1007.8 |
| 20260510003108 | 83 | 213 | 0.0 | 0.0 | 0.00 | 0.00 | 0.00 | 64 | 1007.6 |
| 20260510002550 | 83 | 213 | 0.0 | 0.0 | 0.00 | 0.00 | 0.00 | 65 | 1007.5 |
| 20260510001611 | 83 | 213 | 0.9 | 3.5 | 0.00 | 0.00 | 0.00 | 63 | 1007.4 |
| 20260510001101 | 83 | 213 | 1.7 | 3.5 | 0.00 | 0.00 | 0.00 | 64 | 1007.3 |
| 20260510000613 | 82 | 213 | 1.7 | 3.5 | 0.00 | 0.00 | 0.00 | 64 | 1007.3 |
| 20260510000038 | 82 | 214 | 1.7 | 7.8 | 0.00 | 0.00 | 0.00 | 64 | 1007.3 |
| 20260509235528 | 81 | 214 | 3.5 | 9.6 | 0.00 | 0.00 | 0.00 | 65 | 1007.4 |
| 20260509234550 | 80 | 196 | 7.8 | 9.6 | 0.00 | 0.00 | 0.00 | 67 | 1007.7 |
| 20260509234103 | 79 | 196 | 7.0 | 10.4 | 0.00 | 0.00 | 0.00 | 68 | 1007.7 |
| 20260509233606 | 78 | 234 | 7.8 | 11.3 | 0.00 | 0.00 | 0.00 | 68 | 1007.7 |
| 20260509233034 | 78 | 207 | 8.7 | 17.4 | 0.00 | 0.00 | 0.00 | 67 | 1008.0 |
| 20260509232536 | 79 | 207 | 10.4 | 17.4 | 0.00 | 0.00 | 0.00 | 65 | 1007.9 |
| 20260509231543 | 81 | 223 | 10.4 | 16.5 | 0.00 | 0.00 | 0.00 | 59 | 1007.9 |
| 20260509231050 | 83 | 211 | 8.7 | 13.0 | 0.00 | 0.00 | 0.00 | 60 | 1008.0 |
| 20260509230117 | 87 | 22 | 0.9 | 5.2 | 0.00 | 0.00 | 0.00 | 67 | 1007.4 |
| 20260509225600 | 87 | 28 | 0.9 | 2.6 | 0.00 | 0.00 | 0.00 | 68 | 1007.3 |
| 20260509225111 | 88 | 27 | 1.7 | 3.5 | 0.00 | 0.00 | 0.00 | 67 | 1007.3 |
| 20260509224527 | 88 | 26 | 1.7 | 3.5 | 0.00 | 0.00 | 0.00 | 66 | 1007.1 |
| 20260509224040 | 88 | 27 | 2.6 | 5.2 | 0.00 | 0.00 | 0.00 | 66 | 1007.1 |
| 20260509223040 | 89 | 9 | 2.6 | 4.3 | 0.00 | 0.00 | 0.00 | 64 | 1006.9 |
| 20260509222550 | 89 | 333 | 2.6 | 4.3 | 0.00 | 0.00 | 0.00 | 64 | 1006.9 |
| 20260509222053 | 89 | 313 | 2.6 | 4.3 | 0.00 | 0.00 | 0.00 | 62 | 1006.8 |
| 20260509221523 | 89 | 315 | 2.6 | 7.0 | 0.00 | 0.00 | 0.00 | 61 | 1006.7 |
| 20260509221024 | 89 | 319 | 4.3 | 7.0 | 0.00 | 0.00 | 0.00 | 62 | 1006.6 |
| 20260509220050 | 89 | 61 | 2.6 | 5.2 | 0.00 | 0.00 | 0.00 | 64 | 1006.5 |
| 20260509215555 | 89 | 65 | 3.5 | 5.2 | 0.00 | 0.00 | 0.00 | 64 | 1006.6 |
| 20260509214616 | 90 | 22 | 3.5 | 5.2 | 0.00 | 0.00 | 0.00 | 64 | 1006.9 |
| 20260509214027 | 90 | 26 | 3.5 | 11.3 | 0.00 | 0.00 | 0.00 | 63 | 1006.9 |
| 20260509213531 | 90 | 68 | 5.2 | 11.3 | 0.00 | 0.00 | 0.00 | 62 | 1006.9 |
| 20260509213138 | 89 | 337 | 2.6 | 9.6 | 0.00 | 0.00 | 0.00 | 62 | 1006.9 |
| 20260509212630 | 89 | 283 | 1.7 | 7.0 | 0.00 | 0.00 | 0.00 | 61 | 1007.1 |
| 20260509212111 | 89 | 284 | 4.3 | 7.0 | 0.00 | 0.00 | 0.00 | 60 | 1007.3 |
| 20260509211537 | 89 | 258 | 2.6 | 7.0 | 0.00 | 0.00 | 0.00 | 61 | 1007.3 |
| 20260509211040 | 89 | 310 | 2.6 | 7.0 | 0.00 | 0.00 | 0.00 | 61 | 1007.4 |
| 20260509210108 | 88 | 265 | 4.3 | 7.8 | 0.00 | 0.00 | 0.00 | 61 | 1007.4 |
| 20260509205552 | 88 | 258 | 5.2 | 7.0 | 0.00 | 0.00 | 0.00 | 61 | 1007.4 |
| 20260509205103 | 88 | 333 | 2.6 | 7.8 | 0.00 | 0.00 | 0.00 | 61 | 1007.3 |
| 20260509204521 | 88 | 325 | 3.5 | 9.6 | 0.00 | 0.00 | 0.00 | 62 | 1007.4 |
| 20260509204036 | 88 | 287 | 3.5 | 9.6 | 0.00 | 0.00 | 0.00 | 62 | 1007.5 |
| 20260509203100 | 88 | 288 | 3.5 | 7.8 | 0.00 | 0.00 | 0.00 | 63 | 1007.7 |
| 20260509202548 | 88 | 355 | 4.3 | 9.6 | 0.00 | 0.00 | 0.00 | 62 | 1007.8 |
| 20260509201546 | 87 | 319 | 6.1 | 9.6 | 0.00 | 0.00 | 0.00 | 68 | 1008.0 |
| 20260509201031 | 87 | 180 | 1.7 | 7.0 | 0.00 | 0.00 | 0.00 | 68 | 1007.9 |
| 20260509200030 | 87 | 272 | 3.5 | 6.1 | 0.00 | 0.00 | 0.00 | 67 | 1008.0 |
| 20260509195543 | 87 | 334 | 3.5 | 5.2 | 0.00 | 0.00 | 0.00 | 68 | 1008.1 |
| 20260509194608 | 86 | 20 | 1.7 | 7.0 | 0.00 | 0.00 | 0.00 | 69 | 1008.1 |
| 20260509194118 | 87 | 5 | 2.6 | 7.0 | 0.00 | 0.00 | 0.00 | 68 | 1008.1 |
| 20260509193521 | 87 | 320 | 2.6 | 4.3 | 0.00 | 0.00 | 0.00 | 69 | 1008.2 |
| 20260509193034 | 86 | 355 | 2.6 | 7.0 | 0.00 | 0.00 | 0.00 | 71 | 1008.3 |
| 20260509192539 | 86 | 252 | 3.5 | 7.0 | 0.00 | 0.00 | 0.00 | 69 | 1008.4 |
| 20260509191540 | 86 | 9 | 2.6 | 7.0 | 0.00 | 0.00 | 0.00 | 72 | 1008.4 |
| 20260509191111 | 86 | 254 | 3.5 | 7.0 | 0.00 | 0.00 | 0.00 | 71 | 1008.5 |
| 20260509190613 | 85 | 262 | 2.6 | 7.0 | 0.00 | 0.00 | 0.00 | 75 | 1008.7 |
| 20260509190044 | 85 | 319 | 4.3 | 7.0 | 0.00 | 0.00 | 0.00 | 73 | 1008.8 |
| 20260509185547 | 84 | 302 | 2.6 | 4.3 | 0.00 | 0.00 | 0.00 | 74 | 1008.9 |
| 20260509185053 | 84 | 311 | 0.0 | 5.2 | 0.00 | 0.00 | 0.00 | 76 | 1008.9 |
| 20260509184521 | 84 | 311 | 4.3 | 5.2 | 0.00 | 0.00 | 0.00 | 74 | 1008.9 |
| 20260509184026 | 84 | 317 | 1.7 | 7.0 | 0.00 | 0.00 | 0.00 | 76 | 1009.0 |
| 20260509183048 | 84 | 278 | 3.5 | 6.1 | 0.00 | 0.00 | 0.00 | 76 | 1009.1 |
| 20260509182558 | 84 | 257 | 1.7 | 6.1 | 0.00 | 0.00 | 0.00 | 76 | 1009.1 |
| 20260509181557 | 84 | 360 | 2.6 | 4.3 | 0.00 | 0.00 | 0.00 | 77 | 1009.3 |
| 20260509181042 | 83 | 26 | 1.7 | 5.2 | 0.00 | 0.00 | 0.00 | 80 | 1009.4 |
| 20260509180106 | 83 | 351 | 0.9 | 5.2 | 0.00 | 0.00 | 0.00 | 81 | 1009.6 |
| 20260509175608 | 83 | 319 | 4.3 | 5.2 | 0.00 | 0.00 | 0.00 | 80 | 1009.7 |
| 20260509175114 | 82 | 64 | 1.7 | 5.2 | 0.00 | 0.00 | 0.00 | 80 | 1009.7 |
| 20260509174526 | 82 | 315 | 2.6 | 7.8 | 0.00 | 0.00 | 0.00 | 80 | 1009.8 |
| 20260509174029 | 82 | 320 | 5.2 | 7.8 | 0.00 | 0.00 | 0.00 | 80 | 1009.8 |
| 20260509173640 | 82 | 295 | 3.5 | 7.8 | 0.00 | 0.00 | 0.00 | 81 | 1009.8 |
| 20260509173046 | 83 | 223 | 2.6 | 7.0 | 0.00 | 0.00 | 0.00 | 80 | 1009.9 |
| 20260509172531 | 82 | 247 | 2.6 | 7.0 | 0.00 | 0.00 | 0.00 | 80 | 1009.9 |
| 20260509171552 | 82 | 241 | 3.5 | 6.1 | 0.00 | 0.00 | 0.00 | 79 | 1009.9 |
| 20260509171109 | 82 | 205 | 3.5 | 5.2 | 0.00 | 0.00 | 0.00 | 80 | 1009.9 |
| 20260509170108 | 81 | 237 | 1.7 | 6.1 | 0.00 | 0.00 | 0.00 | 82 | 1009.9 |
| 20260509165558 | 81 | 238 | 1.7 | 6.1 | 0.00 | 0.00 | 0.00 | 82 | 1010.0 |
| 20260509164559 | 81 | 226 | 1.7 | 6.1 | 0.00 | 0.00 | 0.00 | 84 | 1009.8 |
| 20260509164059 | 80 | 229 | 0.0 | 4.3 | 0.00 | 0.00 | 0.00 | 84 | 1009.9 |
| 20260509163609 | 80 | 229 | 2.6 | 4.3 | 0.00 | 0.00 | 0.00 | 84 | 1010.0 |
| 20260509162528 | 80 | 248 | 0.9 | 6.1 | 0.00 | 0.00 | 0.00 | 85 | 1010.0 |
| 20260509161554 | 80 | 253 | 4.3 | 7.0 | 0.00 | 0.00 | 0.00 | 85 | 1010.0 |
| 20260509161045 | 80 | 261 | 3.5 | 7.0 | 0.00 | 0.00 | 0.00 | 85 | 1010.0 |
| 20260509160106 | 79 | 226 | 4.3 | 7.8 | 0.00 | 0.00 | 0.00 | 86 | 1009.8 |
| 20260509155618 | 79 | 161 | 4.3 | 7.0 | 0.00 | 0.00 | 0.00 | 88 | 1009.6 |
| 20260509155057 | 79 | 214 | 5.2 | 9.6 | 0.00 | 0.00 | 0.00 | 88 | 1009.6 |
| 20260509154528 | 78 | 181 | 7.0 | 12.2 | 0.00 | 0.00 | 0.00 | 89 | 1009.5 |
| 20260509154041 | 78 | 209 | 8.7 | 12.2 | 0.00 | 0.00 | 0.00 | 89 | 1009.2 |
| 20260509153040 | 77 | 200 | 7.0 | 8.7 | 0.00 | 0.00 | 0.00 | 92 | 1009.4 |
| 20260509152548 | 77 | 215 | 6.1 | 9.6 | 0.00 | 0.00 | 0.00 | 92 | 1009.5 |
| 20260509152053 | 76 | 200 | 7.0 | 9.6 | 0.00 | 0.00 | 0.00 | 93 | 1009.5 |
| 20260509151522 | 76 | 186 | 7.8 | 9.6 | 0.00 | 0.00 | 0.00 | 93 | 1009.4 |
| 20260509151026 | 76 | 194 | 6.1 | 8.7 | 0.00 | 0.00 | 0.00 | 94 | 1009.5 |
| 20260509150042 | 76 | 204 | 4.3 | 8.7 | 0.00 | 0.00 | 0.00 | 94 | 1009.7 |
| 20260509145553 | 75 | 238 | 7.0 | 8.7 | 0.00 | 0.00 | 0.00 | 94 | 1009.6 |
| 20260509144613 | 75 | 213 | 3.5 | 5.2 | 0.00 | 0.00 | 0.00 | 94 | 1009.6 |
| 20260509144104 | 75 | 222 | 2.6 | 3.5 | 0.00 | 0.00 | 0.00 | 95 | 1009.7 |
| 20260509143608 | 75 | 188 | 2.6 | 6.1 | 0.00 | 0.00 | 0.00 | 95 | 1009.7 |
| 20260509143039 | 75 | 225 | 3.5 | 6.1 | 0.00 | 0.00 | 0.00 | 94 | 1009.6 |
| 20260509142551 | 75 | 204 | 3.5 | 6.1 | 0.00 | 0.00 | 0.00 | 95 | 1009.6 |
| 20260509141610 | 75 | 211 | 0.0 | 4.3 | 0.00 | 0.00 | 0.00 | 95 | 1009.6 |
| 20260509141114 | 75 | 211 | 2.6 | 4.3 | 0.00 | 0.00 | 0.00 | 95 | 1009.7 |
| 20260509140119 | 75 | 182 | 3.5 | 5.2 | 0.00 | 0.00 | 0.00 | 95 | 1009.7 |
| 20260509135621 | 75 | 136 | 1.7 | 5.2 | 0.00 | 0.00 | 0.00 | 95 | 1009.5 |
| 20260509134622 | 74 | 178 | 1.7 | 3.5 | 0.00 | 0.00 | 0.00 | 95 | 1009.6 |
| 20260509134112 | 74 | 177 | 0.9 | 3.5 | 0.00 | 0.00 | 0.00 | 95 | 1009.8 |
| 20260509133623 | 74 | 171 | 2.6 | 4.3 | 0.00 | 0.00 | 0.00 | 95 | 1009.6 |
| 20260509133024 | 74 | 144 | 1.7 | 4.3 | 0.00 | 0.00 | 0.00 | 95 | 1009.6 |
| 20260509132537 | 74 | 128 | 1.7 | 4.3 | 0.00 | 0.00 | 0.00 | 95 | 1009.8 |
| 20260509131558 | 74 | 167 | 0.9 | 4.3 | 0.00 | 0.00 | 0.00 | 94 | 1009.8 |
| 20260509131110 | 74 | 167 | 1.7 | 4.3 | 0.00 | 0.00 | 0.00 | 94 | 1009.8 |
| 20260509130614 | 74 | 167 | 0.0 | 2.6 | 0.00 | 0.00 | 0.00 | 94 | 1009.6 |
| 20260509130042 | 74 | 163 | 0.0 | 0.0 | 0.00 | 0.00 | 0.00 | 94 | 1009.7 |
| 20260509125545 | 74 | 163 | 0.0 | 0.0 | 0.00 | 0.00 | 0.00 | 94 | 1009.6 |
| 20260509124619 | 74 | 145 | 0.0 | 0.0 | 0.00 | 0.00 | 0.00 | 94 | 1009.8 |
| 20260509124104 | 74 | 145 | 0.0 | 0.0 | 0.00 | 0.00 | 0.00 | 94 | 1009.8 |
| 20260509123614 | 74 | 145 | 0.0 | 0.0 | 0.00 | 0.00 | 0.00 | 94 | 1009.7 |
| 20260509123043 | 74 | 145 | 0.0 | 0.0 | 0.00 | 0.00 | 0.00 | 94 | 1009.6 |
| 20260509122548 | 74 | 145 | 0.0 | 0.0 | 0.00 | 0.00 | 0.00 | 94 | 1009.5 |
| 20260509121610 | 74 | 145 | 0.0 | 0.0 | 0.00 | 0.00 | 0.00 | 94 | 1009.2 |
| 20260509121026 | 74 | 145 | 0.0 | 0.0 | 0.00 | 0.00 | 0.00 | 94 | 1009.0 |
| 20260509120536 | 74 | 145 | 0.0 | 1.7 | 0.00 | 0.00 | 0.00 | 94 | 1009.1 |
| 20260509120137 | 74 | 145 | 0.0 | 2.6 | 0.00 | 0.00 | 0.00 | 94 | 1009.1 |
| 20260509115531 | 74 | 145 | 1.7 | 2.6 | 0.00 | 0.09 | 0.00 | 94 | 1009.2 |
| 20260509114554 | 74 | 145 | 0.0 | 0.9 | 0.00 | 0.09 | 0.00 | 94 | 1009.6 |
| 20260509114105 | 74 | 145 | 0.0 | 1.7 | 0.00 | 0.09 | 0.00 | 94 | 1009.7 |
| 20260509113609 | 74 | 145 | 0.0 | 1.7 | 0.00 | 0.09 | 0.00 | 94 | 1009.7 |
| 20260509113037 | 74 | 145 | 0.9 | 3.5 | 0.00 | 0.09 | 0.00 | 94 | 1009.9 |
| 20260509112541 | 74 | 145 | 1.7 | 4.3 | 0.00 | 0.09 | 0.00 | 94 | 1009.9 |
| 20260509111553 | 74 | 142 | 1.7 | 3.5 | 0.00 | 0.09 | 0.00 | 94 | 1009.9 |
| 20260509111036 | 74 | 144 | 0.0 | 0.0 | 0.00 | 0.09 | 0.00 | 94 | 1009.9 |
| 20260509105607 | 74 | 144 | 0.0 | 0.0 | 0.00 | 0.09 | 0.00 | 94 | 1009.7 |
| 20260509105118 | 74 | 144 | 0.0 | 0.0 | 0.00 | 0.09 | 0.00 | 94 | 1009.7 |
| 20260509104537 | 74 | 144 | 0.0 | 0.0 | 0.00 | 0.09 | 0.00 | 94 | 1009.6 |
| 20260509104025 | 74 | 144 | 0.0 | 0.0 | 0.00 | 0.09 | 0.00 | 94 | 1009.2 |
| 20260509103126 | 74 | 144 | 0.0 | 0.0 | 0.00 | 0.09 | 0.00 | 94 | 1009.4 |
| 20260509102618 | 74 | 144 | 0.0 | 0.0 | 0.00 | 0.09 | 0.00 | 94 | 1009.5 |
| 20260509102021 | 74 | 144 | 0.0 | 0.0 | 0.00 | 0.09 | 0.00 | 94 | 1009.5 |
| 20260509101109 | 74 | 143 | 0.0 | 0.0 | 0.00 | 0.09 | 0.00 | 94 | 1009.7 |
| 20260509100620 | 74 | 143 | 0.0 | 0.0 | 0.00 | 0.09 | 0.00 | 94 | 1009.7 |
| 20260509100042 | 74 | 143 | 0.0 | 0.0 | 0.00 | 0.09 | 0.00 | 94 | 1009.6 |
| 20260509095531 | 74 | 146 | 0.0 | 0.0 | 0.00 | 0.09 | 0.00 | 94 | 1009.4 |
| 20260509094553 | 74 | 150 | 0.0 | 0.0 | 0.00 | 0.09 | 0.00 | 94 | 1009.0 |
| 20260509094102 | 74 | 154 | 0.0 | 1.7 | 0.00 | 0.09 | 0.00 | 94 | 1008.9 |
| 20260509093604 | 74 | 155 | 0.0 | 1.7 | 0.00 | 0.09 | 0.00 | 94 | 1008.8 |
| 20260509093035 | 74 | 155 | 0.0 | 2.6 | 0.00 | 0.09 | 0.00 | 94 | 1008.8 |
| 20260509092546 | 74 | 155 | 0.9 | 4.3 | 0.00 | 0.09 | 0.00 | 94 | 1008.8 |
| 20260509091542 | 74 | 155 | 2.6 | 5.2 | 0.00 | 0.09 | 0.00 | 94 | 1008.9 |
| 20260509091053 | 74 | 150 | 3.5 | 5.2 | 0.00 | 0.09 | 0.00 | 94 | 1008.7 |
| 20260509090113 | 74 | 150 | 0.0 | 1.7 | 0.00 | 0.09 | 0.00 | 94 | 1009.0 |
| 20260509085522 | 74 | 150 | 0.0 | 2.6 | 0.00 | 0.09 | 0.00 | 94 | 1009.0 |
| 20260509085127 | 74 | 150 | 1.7 | 7.0 | 0.00 | 0.09 | 0.00 | 94 | 1008.9 |
| 20260509084531 | 74 | 148 | 3.5 | 7.0 | 0.00 | 0.09 | 0.00 | 94 | 1008.9 |
| 20260509084047 | 74 | 148 | 4.3 | 7.0 | 0.00 | 0.09 | 0.00 | 94 | 1009.1 |
| 20260509083049 | 74 | 173 | 3.5 | 5.2 | 0.00 | 0.09 | 0.00 | 93 | 1009.3 |
| 20260509082554 | 74 | 189 | 3.5 | 5.2 | 0.00 | 0.09 | 0.00 | 93 | 1009.4 |
| 20260509082106 | 74 | 196 | 0.0 | 3.5 | 0.00 | 0.09 | 0.00 | 93 | 1009.6 |
| 20260509081523 | 74 | 150 | 0.0 | 0.0 | 0.00 | 0.09 | 0.00 | 93 | 1009.8 |
| 20260509081035 | 74 | 150 | 0.0 | 0.0 | 0.00 | 0.09 | 0.00 | 93 | 1009.9 |
| 20260509080053 | 74 | 150 | 0.0 | 1.7 | 0.00 | 0.09 | 0.00 | 93 | 1009.7 |
| 20260509075605 | 74 | 150 | 0.0 | 0.0 | 0.00 | 0.09 | 0.00 | 93 | 1009.7 |
| 20260509074606 | 74 | 150 | 0.0 | 0.0 | 0.00 | 0.09 | 0.00 | 93 | 1009.5 |
| 20260509074117 | 74 | 150 | 0.0 | 0.9 | 0.00 | 0.09 | 0.00 | 93 | 1009.5 |
| 20260509073620 | 74 | 150 | 0.0 | 2.6 | 0.00 | 0.09 | 0.00 | 93 | 1009.4 |
| 20260509073047 | 74 | 150 | 0.9 | 4.3 | 0.00 | 0.09 | 0.00 | 93 | 1009.5 |
| 20260509072551 | 74 | 150 | 1.7 | 4.3 | 0.00 | 0.09 | 0.00 | 93 | 1009.5 |
| 20260509071611 | 74 | 150 | 2.6 | 6.1 | 0.00 | 0.09 | 0.00 | 93 | 1009.5 |
| 20260509071027 | 74 | 148 | 2.6 | 6.1 | 0.00 | 0.09 | 0.00 | 93 | 1009.5 |
| 20260509070027 | 74 | 163 | 4.3 | 7.8 | 0.00 | 0.09 | 0.00 | 93 | 1009.3 |
| 20260509065541 | 74 | 159 | 3.5 | 7.8 | 0.00 | 0.09 | 0.00 | 93 | 1009.1 |
| 20260509065024 | 74 | 144 | 5.2 | 7.0 | 0.00 | 0.09 | 0.00 | 93 | 1009.1 |
| 20260509064545 | 74 | 163 | 3.5 | 7.0 | 0.00 | 0.09 | 0.00 | 93 | 1009.2 |
| 20260509064028 | 74 | 149 | 3.5 | 6.1 | 0.00 | 0.09 | 0.00 | 92 | 1009.2 |
| 20260509063545 | 74 | 159 | 4.3 | 6.1 | 0.00 | 0.09 | 0.00 | 92 | 1009.1 |
| 20260509063044 | 74 | 150 | 3.5 | 6.1 | 0.00 | 0.09 | 0.00 | 92 | 1009.2 |
| 20260509062524 | 74 | 155 | 3.5 | 7.0 | 0.00 | 0.09 | 0.00 | 92 | 1009.1 |
| 20260509062032 | 74 | 144 | 4.3 | 8.7 | 0.00 | 0.09 | 0.00 | 92 | 1009.1 |
| 20260509061531 | 74 | 150 | 5.2 | 8.7 | 0.00 | 0.09 | 0.00 | 92 | 1009.0 |
| 20260509061041 | 74 | 139 | 3.5 | 9.6 | 0.00 | 0.09 | 0.00 | 92 | 1009.1 |
| 20260509060525 | 74 | 146 | 7.0 | 9.6 | 0.00 | 0.09 | 0.00 | 92 | 1009.2 |
| 20260509060022 | 74 | 161 | 6.1 | 11.3 | 0.00 | 0.09 | 0.00 | 92 | 1009.2 |
| 20260509055532 | 74 | 148 | 9.6 | 11.3 | 0.00 | 0.09 | 0.00 | 92 | 1009.4 |
| 20260509055022 | 74 | 144 | 7.0 | 10.4 | 0.00 | 0.09 | 0.00 | 92 | 1009.4 |
| 20260509054534 | 74 | 161 | 7.0 | 10.4 | 0.00 | 0.09 | 0.00 | 92 | 1009.5 |
| 20260509054025 | 74 | 153 | 6.1 | 8.7 | 0.00 | 0.09 | 0.00 | 92 | 1009.4 |
| 20260509053553 | 74 | 153 | 6.1 | 10.4 | 0.00 | 0.09 | 0.00 | 92 | 1009.4 |
| 20260509053033 | 74 | 144 | 7.0 | 11.3 | 0.00 | 0.09 | 0.00 | 92 | 1009.4 |
| 20260509052522 | 74 | 143 | 7.8 | 12.2 | 0.00 | 0.09 | 0.00 | 92 | 1009.3 |
| 20260509052037 | 74 | 155 | 8.7 | 12.2 | 0.00 | 0.09 | 0.00 | 92 | 1009.2 |
| 20260509051524 | 74 | 136 | 9.6 | 12.2 | 0.00 | 0.09 | 0.00 | 92 | 1009.1 |
| 20260509051053 | 74 | 148 | 6.1 | 10.4 | 0.00 | 0.09 | 0.00 | 92 | 1009.1 |
| 20260509050526 | 74 | 171 | 7.0 | 12.2 | 0.00 | 0.09 | 0.00 | 92 | 1009.0 |